Weather History for Owosso, MI

Change the Weather History Date:

Sunday, October 16, 2011

  Actual Average (KFNT) Record (KFNT)
Temperature  
Mean Temperature 53 °F 49 °F  
Max Temperature 60 °F 60 °F 87 °F (1938)
Min Temperature 46 °F 39 °F 25 °F (1991)
Degree Days  
Heating Degree Days 12 16  
Month to date heating degree days 213  
Since 1 July heating degree days 423  
Cooling Degree Days 0 0  
Month to date cooling degree days 2  
Year to date cooling degree days 528  
Growing Degree Days 3 (Base 50)    
Moisture  
Dew Point 38 °F    
Average Humidity 58    
Maximum Humidity 76    
Minimum Humidity 36    
Precipitation  
Precipitation 0.00 in 0.07 in 1.90 in (2001)
Month to date precipitation 1.36  
Year to date precipitation 25.67  
Snow  
Snow 0.00 in 0.00 in T in (1977)
Month to date snowfall 0.1  
Since 1 July snowfall 0.1  
Since 1 September snowfall 0.1  
Snow Depth -    
Sea Level Pressure  
Sea Level Pressure 29.72 in    
Wind  
Wind Speed 9 mph (WSW)    
Max Wind Speed 21 mph    
Max Gust Speed 29 mph    
Visibility 10 miles    
Events      
T = Trace of Precipitation, MM = Missing Value Source: NWS Daily Summary

Daily Weather History Graph

Daily Weather History Graph

Search for Another Location

Airport:

Trip Planner

Search our weather history database for the weather conditions in past years. The results will help you decide how hot, cold, wet, or windy it might be!

Date:

Astronomy

Oct. 16, 2011 Rise Set
Actual Time 7:50 AM EDT 6:52 PM EDT
Civil Twilight 7:22 AM EDT 7:21 PM EDT
Nautical Twilight 6:49 AM EDT 7:54 PM EDT
Astronomical Twilight 6:16 AM EDT 8:26 PM EDT
Moon 9:31 PM EDT (10/16) 12:13 PM EDT (10/16)
Length of Visible Light 11h 58m
Length of Day
11h 01m
Waning Gibbous, 82% of the Moon is Illuminated
Oct 16
Waning Gibbous
Oct 19
Last Quarter
Oct 26
New
Nov 2
First Quarter
Nov 10
Full

Hourly Weather History & Observations

Time (EDT) Temp. Windchill Dew Point Humidity Pressure Visibility Wind Dir Wind Speed Gust Speed Precip Events Conditions
12:14 AM 50.0 °F - 39.2 °F 66% 29.76 in 10.0 mi WSW 8.1 mph - N/A   Clear
12:34 AM 50.0 °F - 39.2 °F 66% 29.78 in 10.0 mi WSW 6.9 mph - N/A   Clear
12:54 AM 50.0 °F - 39.2 °F 66% 29.78 in 10.0 mi WSW 8.1 mph - N/A   Clear
1:34 AM 48.2 °F - 41.0 °F 76% 29.78 in 10.0 mi WSW 5.8 mph - N/A   Clear
1:54 AM 50.0 °F - 41.0 °F 71% 29.79 in 10.0 mi WSW 8.1 mph - N/A   Clear
2:15 AM 50.0 °F - 39.2 °F 66% 29.79 in 10.0 mi WSW 6.9 mph - N/A   Clear
2:34 AM 50.0 °F - 39.2 °F 66% 29.79 in 10.0 mi SW 5.8 mph - N/A   Clear
2:54 AM 48.2 °F - 39.2 °F 71% 29.78 in 10.0 mi SSW 4.6 mph - N/A   Clear
3:14 AM 46.4 °F 44.3 °F 37.4 °F 71% 29.79 in 10.0 mi SW 4.6 mph - N/A   Clear
3:34 AM 48.2 °F - 39.2 °F 71% 29.79 in 10.0 mi SW 3.5 mph - N/A   Clear
3:54 AM 50.0 °F - 39.2 °F 66% 29.78 in 10.0 mi SW 5.8 mph - N/A   Scattered Clouds
4:14 AM 50.0 °F - 37.4 °F 62% 29.78 in 10.0 mi SW 8.1 mph - N/A   Mostly Cloudy
4:54 AM 51.8 °F - 37.4 °F 58% 29.78 in 10.0 mi WSW 10.4 mph - N/A   Overcast
5:14 AM 51.8 °F - 37.4 °F 58% 29.78 in 10.0 mi WSW 9.2 mph - N/A   Mostly Cloudy
5:34 AM 51.8 °F - 37.4 °F 58% 29.78 in 10.0 mi WSW 8.1 mph - N/A   Clear
5:54 AM 51.8 °F - 35.6 °F 54% 29.78 in 10.0 mi WSW 9.2 mph - N/A   Clear
6:14 AM 51.8 °F - 37.4 °F 58% 29.79 in 10.0 mi WSW 10.4 mph - N/A   Mostly Cloudy
6:34 AM 51.8 °F - 37.4 °F 58% 29.79 in 10.0 mi WSW 9.2 mph - N/A   Overcast
7:14 AM 50.0 °F - 39.2 °F 66% 29.78 in 10.0 mi West 6.9 mph - N/A   Scattered Clouds
7:34 AM 50.0 °F - 39.2 °F 66% 29.79 in 10.0 mi WSW 8.1 mph - N/A   Mostly Cloudy
7:55 AM 50.0 °F - 39.2 °F 66% 29.78 in 10.0 mi WSW 6.9 mph - N/A   Mostly Cloudy
8:14 AM 48.2 °F - 39.2 °F 71% 29.77 in 10.0 mi SW 4.6 mph - N/A   Scattered Clouds
8:34 AM 48.2 °F - 41.0 °F 76% 29.78 in 10.0 mi SW 4.6 mph - N/A   Mostly Cloudy
9:14 AM 50.0 °F - 41.0 °F 71% 29.77 in 10.0 mi SW 6.9 mph - N/A   Overcast
9:34 AM 48.2 °F - 41.0 °F 76% 29.77 in 10.0 mi SW 6.9 mph - N/A   Drizzle
9:54 AM 50.0 °F - 42.8 °F 76% 29.76 in 10.0 mi SW 6.9 mph - N/A   Overcast
10:14 AM 50.0 °F - 42.8 °F 76% 29.76 in 10.0 mi SSW 6.9 mph - N/A   Overcast
10:34 AM 51.8 °F - 42.8 °F 71% 29.75 in 10.0 mi SW 6.9 mph - N/A   Overcast
10:54 AM 53.6 °F - 42.8 °F 67% 29.74 in 10.0 mi SW 12.7 mph 18.4 mph N/A   Overcast
11:14 AM 53.6 °F - 41.0 °F 62% 29.73 in 10.0 mi SW 9.2 mph - N/A   Overcast
11:34 AM 55.4 °F - 41.0 °F 58% 29.71 in 10.0 mi WSW 9.2 mph - N/A   Mostly Cloudy
12:14 PM 55.4 °F - 39.2 °F 54% 29.69 in 10.0 mi SW 12.7 mph - N/A   Scattered Clouds
12:34 PM 57.2 °F - 39.2 °F 51% 29.69 in 10.0 mi WSW 11.5 mph - N/A   Mostly Cloudy
12:54 PM 59.0 °F - 41.0 °F 51% 29.68 in 10.0 mi WSW 11.5 mph - N/A   Scattered Clouds
1:34 PM 60.8 °F - 41.0 °F 48% 29.65 in 10.0 mi West 12.7 mph 17.3 mph N/A   Mostly Cloudy
1:53 PM 60.8 °F - 41.0 °F 48% 29.64 in 10.0 mi West 15.0 mph - N/A   Overcast
2:14 PM 59.0 °F - 41.0 °F 51% 29.64 in 10.0 mi West 12.7 mph 18.4 mph N/A   Mostly Cloudy
2:34 PM 59.0 °F - 41.0 °F 51% 29.64 in 10.0 mi West 12.7 mph 21.9 mph N/A   Mostly Cloudy
2:54 PM 59.0 °F - 41.0 °F 51% 29.64 in 10.0 mi WNW 15.0 mph 24.2 mph N/A   Overcast
3:14 PM 59.0 °F - 41.0 °F 51% 29.63 in 10.0 mi West 13.8 mph 20.7 mph N/A   Overcast
3:34 PM 57.2 °F - 41.0 °F 55% 29.63 in 10.0 mi West 11.5 mph 17.3 mph N/A   Overcast
3:54 PM 59.0 °F - 41.0 °F 51% 29.63 in 10.0 mi West 16.1 mph 25.3 mph N/A   Mostly Cloudy
4:14 PM 55.4 °F - 41.0 °F 58% 29.64 in 10.0 mi West 15.0 mph 21.9 mph N/A   Mostly Cloudy
4:34 PM 59.0 °F - 35.6 °F 42% 29.64 in 10.0 mi West 19.6 mph 27.6 mph N/A   Mostly Cloudy
4:54 PM 59.0 °F - 33.8 °F 39% 29.65 in 10.0 mi West 20.7 mph 28.8 mph N/A   Mostly Cloudy
5:14 PM 59.0 °F - 32.0 °F 36% 29.65 in 10.0 mi West 18.4 mph 26.5 mph N/A   Scattered Clouds
5:34 PM 57.2 °F - 32.0 °F 38% 29.65 in 10.0 mi West 16.1 mph 24.2 mph N/A   Clear
5:54 PM 55.4 °F - 32.0 °F 41% 29.66 in 10.0 mi West 17.3 mph 21.9 mph N/A   Clear
6:14 PM 55.4 °F - 32.0 °F 41% 29.67 in 10.0 mi West 17.3 mph 21.9 mph N/A   Clear
6:34 PM 53.6 °F - 32.0 °F 44% 29.67 in 10.0 mi West 15.0 mph 27.6 mph N/A   Clear
6:54 PM 53.6 °F - 32.0 °F 44% 29.67 in 10.0 mi WSW 12.7 mph 19.6 mph N/A   Clear
7:14 PM 51.8 °F - 32.0 °F 47% 29.68 in 10.0 mi West 11.5 mph 17.3 mph N/A   Clear
7:34 PM 51.8 °F - 33.8 °F 50% 29.68 in 10.0 mi WSW 10.4 mph - N/A   Clear
7:54 PM 51.8 °F - 33.8 °F 50% 29.68 in 10.0 mi WSW 9.2 mph - N/A   Clear
8:15 PM 50.0 °F - 33.8 °F 54% 29.68 in 10.0 mi WSW 9.2 mph - N/A   Clear
8:34 PM 50.0 °F - 33.8 °F 54% 29.68 in 10.0 mi SW 10.4 mph - N/A   Clear
8:54 PM 50.0 °F - 33.8 °F 54% 29.68 in 10.0 mi SW 8.1 mph - N/A   Clear
9:14 PM 50.0 °F - 33.8 °F 54% 29.68 in 10.0 mi SW 6.9 mph - N/A   Scattered Clouds
9:34 PM 50.0 °F - 33.8 °F 54% 29.69 in 10.0 mi WSW 6.9 mph - N/A   Scattered Clouds
9:54 PM 50.0 °F - 35.6 °F 58% 29.69 in 10.0 mi WSW 8.1 mph - N/A   Scattered Clouds
10:14 PM 50.0 °F - 35.6 °F 58% 29.69 in 10.0 mi WSW 9.2 mph - N/A   Scattered Clouds
10:34 PM 50.0 °F - 35.6 °F 58% 29.69 in 10.0 mi WSW 10.4 mph - N/A   Clear
10:54 PM 50.0 °F - 35.6 °F 58% 29.69 in 10.0 mi WSW 9.2 mph - N/A   Clear
11:14 PM 48.2 °F - 35.6 °F 62% 29.69 in 10.0 mi SW 9.2 mph - N/A   Clear
11:34 PM 46.4 °F 42.4 °F 35.6 °F 66% 29.69 in 10.0 mi SW 8.1 mph - N/A   Clear
11:55 PM 46.4 °F 42.9 °F 35.6 °F 66% 29.69 in 10.0 mi SW 6.9 mph - N/A   Clear